TimeMDT,TemperatureF,Dew PointF,Humidity,Sea Level PressureIn,VisibilityMPH,Wind Direction,Wind SpeedMPH,Gust SpeedMPH,PrecipitationIn,Events,Conditions,WindDirDegrees,DateUTC
12:51 AM,66.9,27.0,22,29.91,10.0,SW,5.8,-,N/A,,Clear,220,2012-10-10 06:51:00
1:51 AM,66.9,26.1,21,29.92,10.0,West,8.1,-,N/A,,Clear,280,2012-10-10 07:51:00
2:51 AM,64.9,26.1,23,29.93,10.0,South,5.8,-,N/A,,Clear,180,2012-10-10 08:51:00
3:51 AM,66.0,26.1,22,29.93,10.0,Calm,Calm,-,N/A,,Clear,0,2012-10-10 09:51:00
4:51 AM,66.9,26.1,21,29.94,10.0,South,4.6,-,N/A,,Clear,180,2012-10-10 10:51:00
5:51 AM,57.0,28.9,34,29.99,10.0,ENE,15.0,-,N/A,,Clear,70,2012-10-10 11:51:00
6:51 AM,54.0,30.0,40,30.03,10.0,East,16.1,-,N/A,,Clear,80,2012-10-10 12:51:00
7:51 AM,50.0,35.1,57,30.04,9.0,ENE,29.9,-,N/A,,Clear,70,2012-10-10 13:51:00
8:02 AM,50.0,35.1,57,30.20,2.5,ENE,33.4,-,N/A,,Haze,70,2012-10-10 14:02:00
8:11 AM,51.1,35.1,54,30.21,9.0,ENE,29.9,-,N/A,,Clear,70,2012-10-10 14:11:00
8:51 AM,52.0,36.0,54,30.07,9.0,ENE,31.1,-,N/A,,Clear,70,2012-10-10 14:51:00
9:51 AM,55.0,36.0,49,30.07,9.0,ENE,32.2,-,N/A,,Clear,70,2012-10-10 15:51:00
10:51 AM,55.9,37.0,49,30.07,9.0,ENE,31.1,-,N/A,,Clear,70,2012-10-10 16:51:00
11:51 AM,59.0,37.0,44,30.05,9.0,ENE,33.4,-,N/A,,Clear,70,2012-10-10 17:51:00
12:51 PM,62.1,37.0,39,30.02,9.0,ENE,34.5,40.3,N/A,,Clear,70,2012-10-10 18:51:00
1:51 PM,63.0,37.9,40,30.00,9.0,ENE,31.1,-,N/A,,Clear,70,2012-10-10 19:51:00
2:51 PM,64.9,37.9,37,29.98,9.0,ENE,28.8,36.8,N/A,,Clear,60,2012-10-10 20:51:00
3:13 PM,64.0,37.9,38,30.16,2.5,ENE,29.9,38.0,N/A,,Haze,70,2012-10-10 21:13:00
3:23 PM,64.0,37.9,38,30.16,9.0,ENE,29.9,-,N/A,,Clear,70,2012-10-10 21:23:00
3:51 PM,64.0,37.9,38,29.96,9.0,ENE,29.9,-,N/A,,Clear,60,2012-10-10 21:51:00
4:51 PM,63.0,37.9,40,29.95,9.0,ENE,31.1,-,N/A,,Clear,70,2012-10-10 22:51:00
5:51 PM,61.0,37.9,42,29.98,9.0,ENE,32.2,-,N/A,,Clear,70,2012-10-10 23:51:00
6:51 PM,57.9,39.0,49,30.01,9.0,ENE,32.2,-,N/A,,Clear,70,2012-10-11 00:51:00
7:51 PM,55.9,39.9,55,30.03,10.0,ENE,35.7,-,N/A,,Clear,60,2012-10-11 01:51:00
8:51 PM,55.9,41.0,57,30.03,10.0,NE,33.4,-,N/A,,Scattered Clouds,50,2012-10-11 02:51:00
9:51 PM,54.0,44.1,69,30.04,9.0,ENE,32.2,-,N/A,,Clear,60,2012-10-11 03:51:00
10:51 PM,53.1,46.9,80,30.04,8.0,NE,33.4,-,N/A,,Clear,50,2012-10-11 04:51:00
11:51 PM,53.1,46.9,80,30.03,8.0,NE,27.6,-,N/A,,Clear,40,2012-10-11 05:51:00